Regional Weather Roundup
Issued by NWS State College, PA

Home | Current Version | Previous Version | Graphics & Text | Print | Product List | Glossary On
Versions: 1 2 3 4 5 6 7 8 9 10 11 12 13 14 15 16 17 18 19 20 21 22 23 24 25 26 27 28 29 30 31 32 33 34 35 36 37 38 39 40 41 42 43 44 45 46 47 48 49 50
000
ASUS41 KCTP 060803
RWRCTP

REGIONAL WEATHER ROUNDUP
NATIONAL WEATHER SERVICE STATE COLLEGE PA
300 AM EST TUE DEC 06 2016

Note: "fair" indicates few or no clouds below 12,000 feet with no
significant weather and/or obstructions to visibility.

* = STATION THAT DOES NOT REPORT PRECIPITATION /E.G. RAIN...SNOW...ETC/
    THUNDER OR FOG.

PAZ002>004-007>009-013>016-020>023-029>032-060900-
WESTERN PENNSYLVANIA

CITY           SKY/WX    TMP DP  RH WIND       PRES   REMARKS
ERIE           CLOUDY    34  28  79 SE3       30.06F
MEADVILLE      PTCLDY    30  26  85 E7        30.03F
FRANKLIN*        N/A     25  21  86 E6        30.06R
NEW CASTLE     FAIR      29  28  96 E7        30.03S
BEAVER COUNTY  NOT AVBL
BUTLER*        PTCLDY    30  25  80 E10       30.05S
PITTSBURGH INT CLOUDY    35  28  75 E9        30.00F
PITTSBURGH     PTCLDY    33  26  75 E8        30.00F
INDIANA*       CLEAR     34  28  80 E7G13     30.06F
LATROBE        PTCLDY    30  28  93 N6        30.03S
WASHINGTON CO* PTCLDY    34  27  75 NE12      29.97F
$$

PAZ004>006-010>012-017>019-024>028-033>037-041-042-045-046-049>053-060900-
CENTRAL PENNSYLVANIA

CITY           SKY/WX    TMP DP  RH WIND       PRES   REMARKS
BRADFORD       CLOUDY    33  28  81 E5        30.03F
DUBOIS         CLOUDY    28  25  88 E6        30.04S
CLEARFIELD     CLOUDY    27  26  96 CALM      30.08R FOG
JOHNSTOWN      CLOUDY    30  26  85 E8        30.00F
ALTOONA        CLOUDY    29  26  89 E3        30.08F
STATE COLLEGE  CLOUDY    30  27  89 W3        30.09S
WILLIAMSPORT   CLOUDY    35  27  72 SW3       30.12R
SELINSGROVE    CLOUDY    25  25 100 CALM      30.15R
FT INDIANTOWN  CLOUDY    28  28 100 N2        30.13S
CAPITAL CITY   PTCLDY    31  26  82 SW3       30.14S
HARRISBURG     MOCLDY    31  30  96 CALM      30.13F
YORK           CLOUDY    29  28  96 CALM      30.11F
$$

PAZ038>040-043-044-047-048-054-055-060>062-067>071-060900-
EASTERN PENNSYLVANIA

CITY           SKY/WX    TMP DP  RH WIND       PRES   REMARKS
SCRANTON       CLOUDY    30  26  85 E5        30.10S
MOUNT POCONO   CLEAR     25  23  92 CALM      30.06R
ALLENTOWN      CLOUDY    30  26  85 CALM      30.13R
QUAKERTOWN*    MOSUNNY   27  27 100 W3        30.14S
READING        CLOUDY    30  27  88 CALM      30.14R
LANCASTER      MOCLDY    31  30  96 CALM      30.14S
COATESVILLE    CLOUDY    36  28  75 N6        30.13F
POTTSTOWN      PTCLDY    30  27  88 CALM      30.16R
BLUE BELL      MOCLDY    32  30  93 CALM      30.13S
DOYLESTOWN     PTCLDY    32  28  85 CALM      30.13R
WILLOW GROVE   NOT AVBL
NORTH PHILA    CLOUDY    38  30  73 NW7       30.16R
PHILADELPHIA   MOCLDY    39  30  70 N7        30.15R
$$




USA.gov is the U.S. government's official web portal to all federal, state and local government web resources and services.